Powrót do katalogu

STARLINK-30586

AktywnyŁącznośćVLEO
NORAD 58084·PAYLOAD·🇺🇸 United States

Wystrzelony Oct 18, 2023 z Cape Canaveral Space Force Station

Loading…

Następne Przeloty (najbliższe 24 godziny)

TLE

ŚwieżeSource: CelesTrak SupGP

Epoka: Sep 15, 2026, 02:02 UTC

1 58084C 23160K   26258.08520833  .00024240  00000+0  87788-3 0  2589
2 58084  42.9996  91.7000 0001473 272.8946   1.2756 15.27570142    12

Śledź STARLINK-30586 w czasie rzeczywistym z AllMySat

Download on the App Store